Regional Weather Roundup
Issued by NWS Cleveland, OH

Home | Current Version | Previous Version | Graphics & Text | Print | Product List | Glossary On
Versions: 1 2 3 4 5 6 7 8 9 10 11 12 13 14 15 16 17 18 19 20 21 22 23 24 25 26 27 28 29 30 31 32 33 34 35 36 37 38 39 40 41 42 43 44 45 46 47 48 49 50
000
ASUS41 KCLE 281700
RWRCLE
OHIO REGIONAL WEATHER ROUNDUP
NATIONAL WEATHER SERVICE WILMINGTON, OH
1200 PM EST SUN DEC 28 2014

NOTE: "FAIR" INDICATES FEW OR NO CLOUDS BELOW 12,000 FEET WITH NO
SIGNIFICANT WEATHER AND/OR OBSTRUCTIONS TO VISIBILITY.

OHZ001>008-015>018-024>027-034-035-043-044-281800-
   NORTHWEST OHIO

CITY           SKY/WX    TMP DP  RH WIND       PRES   REMARKS
DEFIANCE       CLOUDY    36  27  69 NW9       30.13F
FINDLAY        CLOUDY    37  30  75 NW8       30.11F
TOLEDO EXPRESS CLOUDY    36  29  75 W8        30.11F
TOLEDO METCALF CLOUDY    37  30  75 NW12      30.11F
LIMA           CLOUDY    37  29  72 NW13      30.11F
$$

OHZ009>014-019>023-028>033-038-089-281800-
   NORTHEAST OHIO

CITY           SKY/WX    TMP DP  RH WIND       PRES   REMARKS
CLE-HOPKINS    CLOUDY    36  31  82 NW8       30.11F
CLE-LAKEFRONT  CLOUDY    38  34  85 W13       30.08F
CUY CO. ARPT   CLOUDY    39  36  87 NW10G18   30.09S
LORAIN-ELYRIA  CLOUDY    36  32  85 NW12      30.09F
ASHTABULA      CLOUDY    36  31  82 N5        30.07F
AKRON-CANTON   CLOUDY    37  31  78 NW8       30.07S
WOOSTER        NOT AVBL
MANSFIELD      CLOUDY    35  31  85 VRB6      30.08F
YOUNGSTOWN     FLURRIES  36  32  85 W9        30.05S
$$

OHZ042-051>053-060>062-070>072-077>081-281800-
  SOUTHWEST OHIO

CITY           SKY/WX    TMP DP  RH WIND       PRES   REMARKS
CINC-COVINGTON CLOUDY    35  27  72 N9        30.15S WCI  28
CINC-LUNKEN    CLOUDY    35  31  85 NW6       30.17S
HAMILTON       CLOUDY    36  30  79 NW6       30.17F
DAYTON         NOT AVBL
WRIGHT-PAT AFB NOT AVBL
DAYTON GENERAL CLOUDY    35  29  78 NW7       30.13F WCI  29
WILMINGTON     CLOUDY    35  28  75 NW7       30.12F WCI  29
$$

OHZ036-037-039>041-045>050-054>059-063>069-073>076-082>088-281800-
  CENTRAL AND SOUTHEAST OHIO

CITY           SKY/WX    TMP DP  RH WIND       PRES   REMARKS
COLUMBUS       CLOUDY    37  36  96 NW7       30.11F
OSU AIRPORT    CLOUDY    37  30  75 NW10      30.10F
BOLTON FIELD   CLOUDY    36  32  87 N7        30.12F
RICKENBACK AFB NOT AVBL
NEWARK         CLOUDY    38  31  76 NW10      30.10F
MARION         CLOUDY    36  29  75 NW12      30.10F
LANCASTER      CLOUDY    37  33  85 N5        30.12F
ZANESVILLE     CLOUDY    36  32  85 W9        30.08F
NEW PHILLY     CLOUDY    38  32  79 NW8       30.07F
$$


USA.gov is the U.S. government's official web portal to all federal, state and local government web resources and services.